METEOR 2-8 DEB

Satellite information

Favourite Embed

Satellite Type and Status

DEBRISIN ORBIT

Key statistics

Satellite METEOR 2-8 DEB at a glance.

Uptime

15913

Days in orbit

Revolutions

≈ 14.2

Per day

Orbit

LEO

Low Earth Orbit

Inclination

82.5

Latest

Satellite identification and parameters

Extended collection of information and parameters for METEOR 2-8 DEB.

Object identification

Identified? True

Debris? True

Object name: METEOR 2-8 DEB

International designator: 1982-025X

Object number (NORAD): 36337

Object ID (CCSDS): 36337

Country: COMMONWEALTH OF INDEPENDENT STATES (CIS)

Current information (Y/N): Y

RCS size: SMALL

Orbital parameters

Period: 101.617 minutes

Inclination: 82.5227 deg

SMA: 7213.354 km

Apoapsis: 846.48 km

Periapsis: 823.958 km

RAAN: 99.6216 deg

Eccentricy: 0.00156115

Argument of periapsis: 243.419 deg

Mean anomaly: 116.5389 deg

Mean motion: 14.17088195 rev/day

Mean motion (dot): 0.00006854 rev/day2

B* drag term: 0.0033937946 1/REarth

Two-line elements (TLE)

Creation date: Oct. 18, 2025, 2:17 a.m.

Reference frame: TEME

Reference center: EARTH

Epoch: Oct. 17, 2025, 5:34 p.m. UTC

TLE line 0: 0 METEOR 2-8 DEB

TLE line 1: 1 36337U 82025X 25290.73225563 .00006854 00000-0 33938-2 0 9991

TLE line 2: 2 36337 82.5227 99.6216 0015612 243.4190 116.5389 14.17088195590743

Live tracking on map

Real-time ground track for satellite METEOR 2-8 DEB.

In-orbit conjunctions

A list of the most updated potential collisions computed for object METEOR 2-8 DEB.

Target Orbit TCA Probability of collision Miss distance Type
NOAA 11 SSO 2025-04-19 07:30:43 0.0001412932 377.0 (m) PAYLOAD
NOAA 11 SSO 2025-04-19 04:07:06 0.0001003714 412.0 (m) PAYLOAD
CZ-6A DEB SSO 2024-09-26 22:26:35 0.000136639 293.0 (m) DEBRIS
FENGYUN 1C DEB SSO 2024-08-21 16:44:08 0.0001193173 340.0 (m) DEBRIS

Associated space launch

Second generation soviet meteorological satellite

METEOR 2-8 DEB was lifted into orbit during the mission ‘Tsiklon-3 | Meteor-2 8’, on board a Tsiklon-3 space rocket.

The launch took place on March 25, 1982, 9:50 a.m. from 32/1.

For more information about the launch, click the button.

Launch to space Tsiklon-3 | Meteor-2 8
Tsiklon-3 | Meteor-2 8

Agency: N/A

Status: Launch Successful

Launch date: March 25, 1982, 9:50 a.m. UTC

Rocket: Tsiklon-3

Launch pad: 32/1

Location: Plesetsk Cosmodrome, Russian Federation

...

Latest news about this satellite

There are no fresh news available about this satellite. Check back as we update our databases every day.


Newsletter sign-up

Weekly statistics, charts and insights to help you stay on top of the space industry.